CW6076 Weather Reports


time (UTC)temp
F
wind
direction
speed
knots
gust
knots
rain 1hr
in
rain 24hr
in
rain mn
in
humidity
%
barometer
mb
20260510201501 53 63 0.0 1.7 0.00 0.00 0.00 61 1016.6
20260510200003 54 52 0.9 2.6 0.00 0.00 0.00 57 1016.7
20260510194501 55 78 0.0 3.5 0.00 0.00 0.00 54 1016.6
20260510193005 56 51 0.0 2.6 0.00 0.00 0.00 52 1016.4
20260510191501 56 339 2.6 7.8 0.00 0.00 0.00 51 1016.6
20260510190004 57 360 3.5 8.7 0.00 0.00 0.00 50 1016.6
20260510184502 58 355 3.5 7.8 0.00 0.00 0.00 48 1016.5
20260510183002 58 360 5.2 13.0 0.00 0.00 0.00 48 1016.6
20260510181501 58 44 4.3 10.4 0.00 0.00 0.00 48 1016.6
20260510180005 59 67 6.1 11.3 0.00 0.00 0.00 47 1016.7
20260510174502 59 333 5.2 12.2 0.00 0.00 0.00 49 1016.7
20260510173002 59 5 6.1 12.2 0.00 0.00 0.00 49 1016.9
20260510171504 59 31 2.6 10.4 0.00 0.00 0.00 51 1016.7
20260510170003 59 5 5.2 8.7 0.00 0.00 0.00 51 1017.0
20260510164501 59 14 5.2 11.3 0.00 0.00 0.00 52 1017.1
20260510163002 59 53 4.3 12.2 0.00 0.00 0.00 52 1017.2
20260510161501 59 360 2.6 8.7 0.00 0.00 0.00 54 1017.2
20260510160008 59 30 7.0 13.9 0.00 0.00 0.00 52 1017.5
20260510154501 59 38 3.5 12.2 0.00 0.00 0.00 55 1017.6
20260510153001 59 44 3.5 11.3 0.00 0.00 0.00 57 1017.7
20260510151501 59 54 4.3 12.2 0.00 0.00 0.00 58 1017.8
20260510150006 59 24 2.6 11.3 0.00 0.00 0.00 59 1018.0
20260510144505 60 360 4.3 12.2 0.00 0.00 0.00 59 1018.1
20260510143006 59 45 5.2 11.3 0.00 0.00 0.00 60 1018.4
20260510141502 59 55 7.0 10.4 0.00 0.00 0.00 59 1018.4
20260510140003 60 9 5.2 9.6 0.00 0.00 0.00 59 1018.6
20260510134501 60 49 5.2 11.3 0.00 0.00 0.00 58 1018.6
20260510133001 59 337 3.5 9.6 0.00 0.00 0.00 61 1018.6
20260510131502 60 32 4.3 10.4 0.00 0.00 0.00 59 1018.7
20260510130003 59 338 5.2 12.2 0.00 0.00 0.00 61 1018.9
20260510124501 57 26 6.1 13.9 0.00 0.00 0.00 65 1019.2
20260510123001 59 26 7.0 13.9 0.00 0.00 0.00 62 1019.1
20260510121501 57 355 6.1 12.2 0.00 0.00 0.00 65 1019.4
20260510120005 58 360 7.8 13.9 0.00 0.00 0.00 64 1019.4
20260510114503 56 15 7.8 12.2 0.00 0.00 0.00 67 1019.7
20260510113001 56 5 7.0 13.9 0.00 0.00 0.00 67 1019.7
20260510111501 57 342 7.8 14.8 0.00 0.00 0.00 66 1019.7
20260510110009 56 343 6.1 14.8 0.00 0.00 0.00 68 1019.8
20260510104502 56 5 7.8 13.0 0.00 0.00 0.00 68 1019.8
20260510103001 55 23 4.3 11.3 0.00 0.00 0.00 70 1019.8
20260510101500 54 336 7.0 13.0 0.00 0.00 0.00 71 1019.9
20260510100003 54 360 4.3 11.3 0.00 0.00 0.00 72 1020.0
20260510094500 53 344 6.1 11.3 0.00 0.00 0.00 72 1020.0
20260510093003 53 349 5.2 13.0 0.00 0.00 0.00 73 1020.1
20260510091501 53 13 7.0 14.8 0.00 0.00 0.00 73 1020.2
20260510090003 52 57 6.1 14.8 0.00 0.00 0.00 74 1020.1
20260510084501 52 11 4.3 10.4 0.00 0.00 0.00 74 1020.1
20260510083000 52 355 4.3 9.6 0.00 0.00 0.00 75 1020.1
20260510081501 52 35 6.1 11.3 0.00 0.00 0.00 75 1020.1
20260510080003 51 34 5.2 13.0 0.00 0.00 0.00 76 1020.1
20260510074501 51 360 6.1 11.3 0.00 0.00 0.00 77 1020.0
20260510073000 50 11 3.5 13.9 0.00 0.00 0.00 77 1020.0
20260510071602 50 17 5.2 10.4 0.00 0.00 0.00 77 1019.8
20260510071500 50 360 5.2 10.4 0.00 0.00 0.00 77 1019.9
20260510070003 50 5 2.6 8.7 0.00 0.00 0.00 77 1019.8
20260510064500 50 360 5.2 12.2 0.00 0.00 0.00 77 1019.8
20260510063001 50 5 5.2 11.3 0.00 0.00 0.00 77 1019.6
20260510061501 50 57 2.6 7.8 0.00 0.00 0.00 76 1019.7
20260510060002 50 14 4.3 7.8 0.00 0.00 0.00 76 1019.4
20260510054501 51 15 6.1 11.3 0.00 0.00 0.00 76 1019.4
20260510053000 51 30 2.6 11.3 0.00 0.00 0.00 75 1019.4
20260510051502 51 11 3.5 11.3 0.00 0.00 0.00 75 1019.3
20260510050001 51 24 1.7 9.6 0.00 0.00 0.00 75 1019.4
20260510044602 51 355 3.5 9.6 0.00 0.00 0.00 75 1019.3
20260510043101 52 355 4.3 13.0 0.00 0.00 0.00 74 1019.3
20260510041559 52 17 6.1 9.6 0.00 0.00 0.00 74 1019.3
20260510040103 52 26 5.2 10.4 0.00 0.00 0.00 74 1019.3
20260510040001 52 350 5.2 10.4 0.00 0.00 0.00 74 1019.3
20260510034610 52 348 4.3 10.4 0.00 0.00 0.00 73 1019.3
20260510033119 52 28 2.6 8.7 0.00 0.00 0.00 73 1019.5
20260510031601 53 17 3.5 10.4 0.00 0.00 0.00 73 1019.4
20260510030059 53 25 3.5 9.6 0.00 0.00 0.00 73 1019.3
20260510030004 53 17 4.3 9.6 0.00 0.00 0.00 73 1019.3
20260510024603 53 13 4.3 11.3 0.00 0.00 0.00 72 1019.5
20260510023059 54 30 3.5 8.7 0.00 0.00 0.00 71 1019.5
20260510021603 54 10 6.1 10.4 0.00 0.00 0.00 68 1019.4
20260510020059 54 44 4.3 8.7 0.00 0.00 0.00 68 1019.5
20260510020001 54 5 4.3 8.7 0.00 0.00 0.00 68 1019.5
20260510014559 54 73 3.5 6.1 0.00 0.00 0.00 69 1019.5
20260510013100 54 40 2.6 7.0 0.00 0.00 0.00 70 1019.5
20260510011600 55 339 4.3 13.0 0.00 0.00 0.00 72 1019.4
20260510010001 55 350 4.3 14.8 0.00 0.00 0.00 73 1019.2
20260510004602 55 360 7.0 12.2 0.00 0.00 0.00 73 1019.2
20260510003120 56 329 7.0 12.2 0.00 0.00 0.00 73 1019.3
20260510001559 56 20 6.1 11.3 0.00 0.00 0.00 72 1019.2
20260510000105 56 348 5.2 12.2 0.00 0.00 0.00 73 1019.3
20260510000004 56 19 5.2 12.2 0.00 0.00 0.00 73 1019.3
20260509234508 56 36 4.3 10.4 0.00 0.00 0.00 73 1019.3
20260509233002 57 74 3.5 8.7 0.00 0.00 0.00 74 1019.3
20260509231502 57 26 3.5 7.8 0.00 0.00 0.00 74 1019.3
20260509230012 57 24 2.6 6.1 0.00 0.00 0.00 74 1019.2
20260509224502 57 23 3.5 9.6 0.00 0.00 0.00 73 1019.2
20260509223003 57 46 3.5 11.3 0.00 0.00 0.00 74 1019.3
20260509221504 57 5 1.7 7.0 0.00 0.00 0.00 74 1019.3
20260509220003 57 334 3.5 10.4 0.00 0.00 0.00 73 1019.3
20260509214501 57 5 4.3 10.4 0.00 0.00 0.00 73 1019.3
20260509213002 58 9 3.5 9.6 0.00 0.00 0.00 73 1019.3
20260509211501 58 331 3.5 13.0 0.00 0.00 0.00 73 1019.1
20260509210012 58 42 3.5 9.6 0.00 0.00 0.00 73 1019.1
20260509204502 58 11 2.6 9.6 0.00 0.00 0.00 73 1019.1
20260509203001 59 17 3.5 9.6 0.00 0.00 0.00 73 1019.1